Location: Colonia Mina de C?rbuni
(46.1667°N, 22.7167°E)
Time: 18:09:59
(UTC+00:00)

Cosmos 1892 - Pass Details

Date: 04 February 2023
Orbit: 486 x 506 km, 82.5° (Epoch: 30 March)

Event Time Altitude Azimuth Distance (km) Brightness Sun altitude
Rises 16:09:04 0° 172° (S) 2,568 6.4 -5.9°
Reaches altitude 10° 16:11:13 10° 166° (SSE) 1,696 5.4 -6.2°
Maximum altitude 16:14:45 44° 94° (E) 704 3.0 -6.8°
Drops below altitude 10° 16:18:22 10° 21° (NNE) 1,727 5.0 -7.4°
Sets 16:20:34 0° 15° (NNE) 2,622 6.0 -7.8°
